GW0175 Weather Reports


Display with metric or nautical units.
time (UTC)temp
F
wind
direction
speed
MPH
gust
MPH
rain 1hr
in
rain 24hr
in
rain mn
in
humidity
%
barometer
mb
20260904095549 73 15 0.0 2.0 0.00 0.00 0.00 59 1011.9
20260904095044 74 0 0.0 0.0 0.00 0.00 0.00 58 1011.6
20260904094539 75 20 0.0 2.0 0.00 0.00 0.00 57 1011.8
20260904094034 75 243 0.0 3.0 0.00 0.00 0.00 57 1011.5
20260904093531 75 0 0.0 0.0 0.00 0.00 0.00 58 1011.8
20260904093031 75 172 0.0 1.0 0.00 0.00 0.00 57 1011.9
20260904092527 75 294 0.0 2.0 0.00 0.00 0.00 57 1012.0
20260904092023 76 303 0.0 3.0 0.00 0.00 0.00 56 1012.0
20260904091519 76 312 2.0 2.0 0.00 0.00 0.00 55 1012.1
20260904091018 76 326 0.0 2.0 0.00 0.00 0.00 55 1011.8
20260904090514 76 352 0.0 3.0 0.00 0.00 0.00 55 1012.0
20260904090010 76 276 2.0 3.0 0.00 0.00 0.00 56 1011.8
20260904085505 76 297 0.0 0.0 0.00 0.00 0.00 56 1011.8
20260904085004 76 297 0.0 0.0 0.00 0.00 0.00 55 1011.8
20260904084500 77 297 0.0 2.0 0.00 0.00 0.00 54 1011.8
20260904083955 77 270 0.0 2.0 0.00 0.00 0.00 54 1011.9
20260904083452 77 331 0.0 2.0 0.00 0.00 0.00 54 1011.9
20260904082947 77 287 2.0 4.0 0.00 0.00 0.00 54 1011.9
20260904082442 77 291 0.0 3.0 0.00 0.00 0.00 54 1011.9
20260904081937 77 289 0.0 5.0 0.00 0.00 0.00 54 1011.8
20260904081433 77 346 0.0 3.0 0.00 0.00 0.00 53 1011.8
20260904080929 77 297 1.0 4.0 0.00 0.00 0.00 55 1012.1
20260904080424 76 285 0.0 4.0 0.00 0.00 0.00 56 1012.1
20260904075920 77 243 0.0 4.0 0.00 0.00 0.00 55 1012.4
20260904075416 77 237 0.0 3.0 0.00 0.00 0.00 54 1012.0
20260904074914 78 265 2.0 4.0 0.00 0.00 0.00 54 1012.1
20260904074410 78 35 0.0 4.0 0.00 0.00 0.00 54 1012.0
20260904073905 77 270 1.0 4.0 0.00 0.00 0.00 56 1011.9
20260904073401 78 243 0.0 2.0 0.00 0.00 0.00 55 1011.6
20260904072856 78 174 0.0 2.0 0.00 0.00 0.00 54 1011.8
20260904072351 78 81 0.0 2.0 0.00 0.00 0.00 54 1011.5
20260904071846 78 233 0.0 2.0 0.00 0.00 0.00 53 1011.8
20260904071341 78 215 0.0 1.0 0.00 0.00 0.00 53 1011.4
20260904070836 78 291 1.0 3.0 0.00 0.00 0.00 53 1011.9
20260904070335 78 270 2.0 2.0 0.00 0.00 0.00 54 1011.9
20260904065829 78 193 3.0 4.0 0.00 0.00 0.00 54 1012.0
20260904065327 78 180 3.0 4.0 0.00 0.00 0.00 53 1012.0
20260904064821 78 185 2.0 3.0 0.00 0.00 0.00 54 1012.0
20260904064317 78 172 0.0 1.0 0.00 0.00 0.00 54 1012.0
20260904063813 78 174 0.0 2.0 0.00 0.00 0.00 54 1011.8
20260904063309 79 165 0.0 2.0 0.00 0.00 0.00 53 1011.6
20260904062804 79 246 0.0 1.0 0.00 0.00 0.00 51 1011.9
20260904062300 80 180 0.0 1.0 0.00 0.00 0.00 51 1011.6
20260904061755 80 196 2.0 2.0 0.00 0.00 0.00 50 1011.9
20260904061251 80 241 0.0 4.0 0.00 0.00 0.00 50 1011.8
20260904060748 81 160 0.0 2.0 0.00 0.00 0.00 49 1011.8
20260904060243 81 241 2.0 5.0 0.00 0.00 0.00 49 1011.6
20260904055738 81 237 2.0 4.0 0.00 0.00 0.00 49 1011.8
20260904055232 81 253 3.0 5.0 0.00 0.00 0.00 49 1011.6
20260904054728 81 190 3.0 5.0 0.00 0.00 0.00 49 1011.5
20260904054224 80 225 4.0 4.0 0.00 0.00 0.00 49 1011.6
20260904053719 80 241 3.0 4.0 0.00 0.00 0.00 49 1011.6
20260904053218 79 225 2.0 5.0 0.00 0.00 0.00 51 1011.6
20260904052715 78 237 3.0 5.0 0.00 0.00 0.00 52 1011.6
20260904052211 79 221 2.0 3.0 0.00 0.00 0.00 52 1011.9
20260904051708 79 216 3.0 4.0 0.00 0.00 0.00 52 1012.1
20260904051203 79 197 2.0 3.0 0.00 0.00 0.00 51 1011.9
20260904050658 78 213 0.0 5.0 0.00 0.00 0.00 53 1011.8
20260904050154 78 270 0.0 5.0 0.00 0.00 0.00 57 1011.8
20260904045654 80 240 2.0 3.0 0.00 0.00 0.00 53 1011.8
20260904045154 80 209 2.0 3.0 0.00 0.00 0.00 53 1011.5
20260904044649 80 160 3.0 3.0 0.00 0.00 0.00 52 1011.4
20260904044146 81 250 4.0 6.0 0.00 0.00 0.00 48 1011.5
20260904043642 81 135 0.0 3.0 0.00 0.00 0.00 47 1011.5
20260904043137 81 175 2.0 2.0 0.00 0.00 0.00 48 1011.4
20260904042633 80 172 0.0 1.0 0.00 0.00 0.00 49 1011.1
20260904042128 80 261 0.0 0.0 0.00 0.00 0.00 49 1011.1
20260904041624 80 270 0.0 1.0 0.00 0.00 0.00 50 1011.3
20260904041120 80 279 0.0 1.0 0.00 0.00 0.00 50 1011.2
20260904040615 80 254 0.0 1.0 0.00 0.00 0.00 50 1011.0
20260904040112 80 246 0.0 2.0 0.00 0.00 0.00 50 1011.2
20260904035607 81 251 2.0 3.0 0.00 0.00 0.00 48 1011.2
20260904035106 81 240 0.0 2.0 0.00 0.00 0.00 49 1011.4
20260904034601 82 254 1.0 3.0 0.00 0.00 0.00 47 1011.0
20260904034057 83 180 0.0 2.0 0.00 0.00 0.00 46 1011.1
20260904033553 83 180 0.0 2.0 0.00 0.00 0.00 45 1011.2
20260904033050 83 180 2.0 3.0 0.00 0.00 0.00 45 1011.2
20260904032545 82 154 1.0 3.0 0.00 0.00 0.00 46 1011.1
20260904032044 81 169 2.0 2.0 0.00 0.00 0.00 46 1011.2
20260904031543 80 106 0.0 0.0 0.00 0.00 0.00 47 1011.1
20260904031040 82 66 0.0 2.0 0.00 0.00 0.00 45 1011.0
20260904030535 83 180 0.0 0.0 0.00 0.00 0.00 44 1011.0
20260904030031 82 246 0.0 0.0 0.00 0.00 0.00 45 1010.8
20260904025526 82 246 0.0 0.0 0.00 0.00 0.00 47 1010.7
20260904025026 82 255 0.0 2.0 0.00 0.00 0.00 48 1010.6
20260904024522 83 246 0.0 3.0 0.00 0.00 0.00 48 1010.8
20260904024017 84 173 0.0 1.0 0.00 0.00 0.00 45 1010.4
20260904023514 84 203 0.0 0.0 0.00 0.00 0.00 44 1010.6
20260904023009 84 203 1.0 1.0 0.00 0.00 0.00 43 1010.2
20260904022504 83 188 0.0 1.0 0.00 0.00 0.00 46 1010.2
20260904022001 84 270 1.0 4.0 0.00 0.00 0.00 46 1010.0
20260904021456 86 165 1.0 1.0 0.00 0.00 0.00 38 1010.0
20260904020956 86 74 0.0 0.0 0.00 0.00 0.00 38 1009.9
20260904020452 86 74 0.0 0.0 0.00 0.00 0.00 38 1009.8
20260904015950 86 74 0.0 0.0 0.00 0.00 0.00 37 1009.6
20260904015446 86 74 0.0 0.0 0.00 0.00 0.00 37 1009.6
20260904014944 87 66 0.0 2.0 0.00 0.00 0.00 37 1009.5
20260904014439 87 35 0.0 0.0 0.00 0.00 0.00 36 1009.6
20260904013935 87 74 0.0 2.0 0.00 0.00 0.00 36 1009.6
20260904013431 88 54 0.0 2.0 0.00 0.00 0.00 36 1009.5
20260904012927 87 45 2.0 3.0 0.00 0.00 0.00 36 1009.5
20260904012426 88 49 2.0 3.0 0.00 0.00 0.00 35 1009.5
20260904011921 89 0 4.0 5.0 0.00 0.00 0.00 34 1009.6
20260904011416 90 353 3.0 3.0 0.00 0.00 0.00 34 1009.6
20260904010911 90 348 1.0 5.0 0.00 0.00 0.00 34 1009.5
20260904010408 91 346 3.0 4.0 0.00 0.00 0.00 33 1009.4
20260904005902 91 270 0.0 2.0 0.00 0.00 0.00 33 1009.4
20260904005358 91 251 0.0 2.0 0.00 0.00 0.00 32 1009.4
20260904004852 92 77 0.0 2.0 0.00 0.00 0.00 32 1009.2
20260904004349 92 276 0.0 2.0 0.00 0.00 0.00 32 1009.4
20260904003849 93 258 2.0 5.0 0.00 0.00 0.00 32 1009.5
20260904003345 94 254 0.0 2.0 0.00 0.00 0.00 30 1009.5
20260904002840 94 304 0.0 2.0 0.00 0.00 0.00 29 1009.2
20260904002337 95 345 1.0 1.0 0.00 0.00 0.00 29 1009.2
20260904001835 95 117 0.0 2.0 0.00 0.00 0.00 28 1009.1
20260904001331 96 0 0.0 1.0 0.00 0.00 0.00 27 1009.4
20260904000826 95 350 0.0 0.0 0.00 0.00 0.00 28 1009.0
20260904000325 95 349 3.0 6.0 0.00 0.00 0.00 28 1009.2
20260903235820 95 0 4.0 6.0 0.00 0.00 0.00 28 1008.9
20260903235316 96 3 6.0 9.0 0.00 0.00 0.00 27 1009.0
20260903234815 97 0 2.0 5.0 0.00 0.00 0.00 26 1009.1
20260903234312 98 0 4.0 8.0 0.00 0.00 0.00 26 1008.7
20260903233808 99 270 2.0 3.0 0.00 0.00 0.00 26 1008.9
20260903233304 96 352 4.0 7.0 0.00 0.00 0.00 28 1008.9
20260903232803 96 0 5.0 9.0 0.00 0.00 0.00 27 1009.1
20260903232259 96 348 0.0 9.0 0.00 0.00 0.00 28 1009.0
20260903231757 96 343 6.0 11.0 0.00 0.00 0.00 27 1009.2
20260903231253 96 351 4.0 11.0 0.00 0.00 0.00 27 1008.8
20260903230748 96 350 4.0 14.0 0.00 0.00 0.00 27 1008.9
20260903230248 95 352 7.0 13.0 0.00 0.00 0.00 28 1008.9
20260903225744 97 353 6.0 11.0 0.00 0.00 0.00 27 1009.1
20260903225241 96 348 6.0 17.0 0.00 0.00 0.00 28 1009.0
20260903224737 100 294 0.0 5.0 0.00 0.00 0.00 26 1008.9
20260903224233 102 4 0.0 4.0 0.00 0.00 0.00 23 1008.8
20260903223728 102 79 0.0 3.0 0.00 0.00 0.00 22 1009.1
20260903223226 101 301 2.0 5.0 0.00 0.00 0.00 25 1008.9
20260903222721 99 74 1.0 3.0 0.00 0.00 0.00 27 1008.9
20260903222220 96 294 0.0 4.0 0.00 0.00 0.00 26 1009.1
20260903221715 94 0 0.0 3.0 0.00 0.00 0.00 30 1009.1
20260903221214 93 16 0.0 4.0 0.00 0.00 0.00 35 1009.4
20260903220712 93 0 0.0 0.0 0.00 0.00 0.00 33 1009.2
20260903220208 93 270 0.0 5.0 0.00 0.00 0.00 31 1009.4
20260903215706 92 298 3.0 5.0 0.00 0.00 0.00 31 1009.4
20260903215202 91 295 2.0 4.0 0.00 0.00 0.00 32 1009.5
20260903214700 91 300 0.0 3.0 0.00 0.00 0.00 37 1009.5
20260903214156 90 270 0.0 3.0 0.00 0.00 0.00 38 1009.7
20260903213650 89 41 0.0 5.0 0.00 0.00 0.00 40 1009.5
20260903213147 90 279 2.0 12.0 0.00 0.00 0.00 38 1009.6
20260903212642 89 197 9.0 11.0 0.00 0.00 0.00 39 1009.8
20260903212138 88 204 9.0 12.0 0.02 0.00 0.00 38 1010.0
20260903211637 85 200 9.0 13.0 0.02 0.00 0.00 49 1010.0
20260903211135 85 195 6.0 15.0 0.00 0.00 0.00 50 1009.9
20260903210630 89 186 7.0 15.0 0.00 0.00 0.00 36 1009.9
20260903210125 86 177 8.0 13.0 0.00 0.00 0.00 48 1010.0
20260903205619 92 240 3.0 12.0 0.00 0.00 0.00 39 1009.9
20260903205113 95 245 6.0 12.0 0.00 0.00 0.00 30 1009.8
20260903204609 96 242 5.0 12.0 0.00 0.00 0.00 28 1009.9
20260903204104 97 239 9.0 15.0 0.00 0.00 0.00 27 1009.9
20260903203559 100 289 0.0 3.0 0.00 0.00 0.00 24 1009.8
20260903203054 99 66 2.0 4.0 0.00 0.00 0.00 24 1009.7
20260903202550 100 352 2.0 4.0 0.00 0.00 0.00 23 1009.7
20260903202045 100 300 0.0 2.0 0.00 0.00 0.00 24 1009.7
20260903201539 100 157 2.0 2.0 0.00 0.00 0.00 23 1009.8
20260903201038 100 345 0.0 2.0 0.00 0.00 0.00 23 1010.0
20260903200533 99 275 0.0 4.0 0.00 0.00 0.00 24 1010.1
20260903200029 99 195 1.0 6.0 0.00 0.00 0.00 24 1010.0
20260903195525 101 34 2.0 2.0 0.00 0.00 0.00 23 1009.9
20260903195020 101 221 6.0 6.0 0.00 0.00 0.00 24 1009.9
20260903194515 100 228 7.0 8.0 0.00 0.00 0.00 25 1010.0
20260903194010 98 206 3.0 5.0 0.00 0.00 0.00 26 1010.2
20260903193507 98 188 2.0 5.0 0.00 0.00 0.00 26 1010.3
20260903193001 100 206 2.0 5.0 0.00 0.00 0.00 25 1010.2
20260903192458 101 256 3.0 9.0 0.00 0.00 0.00 24 1010.3
20260903191953 99 139 0.0 5.0 0.00 0.00 0.00 24 1010.3
20260903191449 99 295 3.0 6.0 0.00 0.00 0.00 25 1010.7
20260903190948 99 180 2.0 3.0 0.00 0.00 0.00 25 1010.6
20260903190443 100 157 3.0 5.0 0.00 0.00 0.00 24 1010.6
20260903185943 100 23 3.0 4.0 0.00 0.00 0.00 24 1010.9
20260903185439 100 180 0.0 5.0 0.00 0.00 0.00 24 1010.9
20260903184938 99 158 2.0 5.0 0.00 0.00 0.00 24 1011.2
20260903184436 100 174 3.0 4.0 0.00 0.00 0.00 24 1011.1
20260903183930 97 165 4.0 6.0 0.00 0.00 0.00 25 1011.2
20260903183425 97 155 3.0 5.0 0.00 0.00 0.00 25 1011.4
20260903182924 98 176 2.0 4.0 0.00 0.00 0.00 25 1011.4
20260903182423 98 233 0.0 5.0 0.00 0.00 0.00 26 1011.9
20260903181918 98 192 2.0 3.0 0.00 0.00 0.00 26 1011.9
20260903181413 99 178 3.0 6.0 0.00 0.00 0.00 25 1011.5
20260903180912 99 237 6.0 6.0 0.00 0.00 0.00 25 1011.9
20260903180407 98 345 1.0 2.0 0.00 0.00 0.00 25 1012.1
20260903175906 98 317 6.0 6.0 0.00 0.00 0.00 25 1012.0
20260903175401 99 281 2.0 7.0 0.00 0.00 0.00 25 1012.1
20260903174855 98 12 4.0 5.0 0.00 0.00 0.00 26 1012.1
20260903174351 98 196 2.0 4.0 0.00 0.00 0.00 26 1012.2
20260903173844 98 86 2.0 7.0 0.00 0.00 0.00 26 1012.0
20260903173340 99 26 2.0 3.0 0.00 0.00 0.00 26 1012.4
20260903172836 97 187 0.0 5.0 0.00 0.00 0.00 26 1012.2
20260903172330 99 139 3.0 7.0 0.00 0.00 0.00 26 1012.3
20260903171826 98 276 2.0 6.0 0.00 0.00 0.00 26 1012.4
20260903171321 99 117 0.0 7.0 0.00 0.00 0.00 27 1012.3
20260903170820 99 240 0.0 3.0 0.00 0.00 0.00 26 1012.4
20260903170316 99 353 0.0 4.0 0.00 0.00 0.00 26 1012.4
20260903165814 97 6 4.0 5.0 0.00 0.00 0.00 27 1012.3
20260903165308 97 186 1.0 4.0 0.00 0.00 0.00 28 1012.4
20260903164803 97 105 1.0 9.0 0.00 0.00 0.00 28 1012.5
20260903164259 98 297 4.0 4.0 0.00 0.00 0.00 27 1012.5
20260903163757 96 246 0.0 6.0 0.00 0.00 0.00 29 1012.6
20260903163254 96 345 0.0 3.0 0.00 0.00 0.00 30 1012.6
20260903162751 95 288 3.0 6.0 0.00 0.00 0.00 29 1012.6
20260903162246 95 229 3.0 5.0 0.00 0.00 0.00 31 1012.6
20260903161742 95 270 0.0 3.0 0.00 0.00 0.00 31 1012.7
20260903161237 93 221 3.0 3.0 0.00 0.00 0.00 32 1012.6
20260903160733 92 331 2.0 5.0 0.00 0.00 0.00 33 1012.5
20260903160231 93 0 0.0 3.0 0.00 0.00 0.00 33 1012.6
20260903155730 92 276 2.0 3.0 0.00 0.00 0.00 33 1012.6
20260903155225 93 156 0.0 2.0 0.00 0.00 0.00 33 1012.7
20260903154721 91 192 2.0 4.0 0.00 0.00 0.00 36 1012.9
20260903154217 90 206 3.0 4.0 0.00 0.00 0.00 36 1012.6
20260903153712 90 180 1.0 3.0 0.00 0.00 0.00 37 1012.7
20260903153208 89 160 1.0 3.0 0.00 0.00 0.00 37 1012.7
20260903152704 88 156 2.0 2.0 0.00 0.00 0.00 38 1012.6
20260903152200 88 157 0.0 2.0 0.00 0.00 0.00 39 1012.7
20260903151659 85 152 0.0 2.0 0.00 0.00 0.00 41 1012.7
20260903151154 84 188 0.0 2.0 0.00 0.00 0.00 43 1012.9
20260903150654 84 177 2.0 2.0 0.00 0.00 0.00 44 1012.9
20260903150150 83 151 2.0 3.0 0.00 0.00 0.00 45 1012.6
20260903145644 84 176 2.0 2.0 0.00 0.00 0.00 43 1012.6
20260903145139 85 144 2.0 2.0 0.00 0.00 0.00 43 1013.0
20260903144637 85 164 2.0 2.0 0.00 0.00 0.00 41 1012.6
20260903144134 86 199 3.0 3.0 0.00 0.00 0.00 40 1012.9
20260903143630 86 114 1.0 2.0 0.00 0.00 0.00 41 1013.1
20260903143125 84 180 0.0 2.0 0.00 0.00 0.00 43 1013.0
20260903142621 85 157 0.0 2.0 0.00 0.00 0.00 42 1013.0
20260903142117 85 75 0.0 2.0 0.00 0.00 0.00 42 1013.1
20260903141613 83 81 0.0 0.0 0.00 0.00 0.00 44 1013.1
20260903141108 82 77 0.0 1.0 0.00 0.00 0.00 45 1013.0
20260903140604 80 69 0.0 1.0 0.00 0.00 0.00 47 1012.9
20260903140059 82 8 0.0 0.0 0.00 0.00 0.00 45 1013.1
20260903135555 80 0 0.0 1.0 0.00 0.00 0.00 46 1013.1
20260903135055 78 32 2.0 3.0 0.00 0.00 0.00 49 1013.0
20260903134554 78 32 0.0 2.0 0.00 0.00 0.00 48 1012.9
20260903134050 78 32 0.0 3.0 0.00 0.00 0.00 49 1013.1
20260903133547 77 14 1.0 2.0 0.00 0.00 0.00 51 1012.9
20260903133043 76 23 2.0 2.0 0.00 0.00 0.00 53 1012.9
20260903132538 74 343 2.0 3.0 0.00 0.00 0.00 54 1012.7
20260903132033 75 90 0.0 0.0 0.00 0.00 0.00 53 1012.7
20260903131532 74 90 0.0 2.0 0.00 0.00 0.00 53 1012.7
20260903131032 73 8 0.0 0.0 0.00 0.00 0.00 55 1012.6
20260903130526 71 26 0.0 2.0 0.00 0.00 0.00 56 1012.6
20260903130021 71 60 1.0 2.0 0.00 0.00 0.00 56 1012.6
20260903125519 71 8 0.0 0.0 0.00 0.00 0.00 56 1012.5
20260903125015 70 8 0.0 1.0 0.00 0.00 0.00 57 1012.4
20260903124509 71 344 0.0 2.0 0.00 0.00 0.00 59 1012.5
20260903124009 70 337 0.0 2.0 0.00 0.00 0.00 58 1012.9
20260903123504 72 168 0.0 0.0 0.00 0.00 0.00 58 1012.3
20260903123001 72 168 0.0 1.0 0.00 0.00 0.00 58 1012.4
20260903122456 71 334 0.0 1.0 0.00 0.00 0.00 57 1012.5
20260903121956 72 106 0.0 1.0 0.00 0.00 0.00 58 1012.3
20260903121450 73 5 0.0 0.0 0.00 0.00 0.00 59 1012.4
20260903120947 72 5 0.0 0.0 0.00 0.00 0.00 58 1012.4
20260903120445 72 5 0.0 0.0 0.00 0.00 0.00 58 1012.2
20260903115943 72 21 2.0 2.0 0.00 0.00 0.00 57 1012.2
20260903115438 73 180 0.0 0.0 0.00 0.00 0.00 57 1012.2
20260903114933 73 180 0.0 0.0 0.00 0.00 0.00 57 1012.1
20260903114428 73 180 0.0 0.0 0.00 0.00 0.00 56 1011.9
20260903113924 73 180 0.0 0.0 0.00 0.00 0.00 56 1012.1
20260903113419 74 198 0.0 0.0 0.00 0.00 0.00 55 1012.0
20260903112915 74 236 0.0 2.0 0.00 0.00 0.00 55 1012.0
20260903112410 74 180 0.0 2.0 0.00 0.00 0.00 55 1011.6
20260903111909 75 173 0.0 1.0 0.00 0.00 0.00 54 1011.8
20260903111409 75 195 0.0 1.0 0.00 0.00 0.00 54 1011.8
20260903110906 75 180 0.0 1.0 0.00 0.00 0.00 54 1011.8
20260903110401 75 198 0.0 1.0 0.00 0.00 0.00 53 1011.6
20260903105855 76 171 2.0 3.0 0.00 0.00 0.00 53 1011.5
20260903105351 76 145 1.0 4.0 0.00 0.00 0.00 52 1011.4
20260903104850 75 166 2.0 3.0 0.00 0.00 0.00 53 1011.5
20260903104345 75 166 2.0 3.0 0.00 0.00 0.00 53 1011.5
20260903103842 75 165 2.0 3.0 0.00 0.00 0.00 53 1011.8
20260903103338 75 152 3.0 3.0 0.00 0.00 0.00 53 1012.0
20260903102833 76 180 0.0 2.0 0.00 0.00 0.00 53 1011.8
20260903102332 75 157 1.0 2.0 0.00 0.00 0.00 53 1011.9
20260903101827 76 151 1.0 3.0 0.00 0.00 0.00 53 1012.0
20260903101322 76 177 3.0 4.0 0.00 0.00 0.00 52 1011.8
20260903100818 77 144 2.0 4.0 0.00 0.00 0.00 52 1012.1
20260903100317 77 187 4.0 4.0 0.00 0.00 0.00 52 1012.1
20260903095815 77 243 1.0 3.0 0.00 0.00 0.00 51 1012.1